Location: Cabri�res
(43.7840°N, 5.4986°E)
Time: 14:58:38
(UTC+00:00)

Cosmos 540 Rocket - Pass Details

Date: 09 April 2020
Orbit: 741 x 753 km, 74.1° (Epoch: 28 May)

Event Time Altitude Azimuth Distance (km) Brightness Sun altitude
Rises 21:27:58 0° 337° (NNW) 3,210 7.8 -30.3°
Reaches altitude 10° 21:30:21 10° 336° (NNW) 2,280 6.8 -30.5°
Enters shadow 21:34:16 52° 320° (NW) 935 4.1 -31.0°
